Location: Arborea
(39.7744°N, 8.5819°E)
Time: 12:23:45
(UTC+00:00)

Daily predictions for brighter satellites

Satellite Brightness Start Highest point End
(mag) Time Altitude Azimuth Time Altitude Azimuth Time Altitude Azimuth
CZ-2C R/B 2.6 19:01:59 10° SSW 19:05:04 20° SSE 19:08:01 10° ESE
Cosmos 1812 3.6 19:04:32 10° SSE 19:07:54 30° E 19:11:18 10° NNE
CZ-4C R/B 3.2 19:00:55 10° NNW 19:08:26 82° NE 19:16:59 10° SE
Cosmos 1833 Rocket 2.9 19:03:07 10° NNW 19:08:41 57° ENE 19:14:13 10° SE
Cosmos 773 Rocket 4.0 19:04:59 10° NNW 19:10:19 84° ENE 19:15:33 10° SSE
OBJECT-B 0.8 19:07:38 10° SSE 19:10:51 67° ENE 19:14:04 10° N
Cosmos 1515 Rocket 4.2 19:10:36 10° SSE 19:14:36 36° E 19:18:37 10° NNE
USA 306 2.9 19:13:42 10° NW 19:17:58 81° NE 19:22:06 11° SE
Cosmos 1437 2.6 19:15:35 10° SSW 19:18:23 75° W 19:21:13 10° N
Cosmos 1633 Rocket 3.0 19:15:01 10° N 19:19:27 78° E 19:23:52 10° S
ISS -2.8 19:16:13 10° WSW 19:19:29 52° NW 19:22:48 10° NE
Cosmos 1328 Rocket 3.5 19:18:43 10° S 19:23:08 86° E 19:27:32 10° N
GEOS 3 Rocket 4.1 19:20:18 10° SSE 19:25:37 64° WSW 19:30:58 10° NW
Cosmos 2228 Rocket 4.5 19:24:37 11° SE 19:27:45 21° E 19:31:07 10° NE
ERS-2 3.4 19:25:06 10° N 19:28:35 44° WNW 19:32:02 10° SW
Cosmos 1500 3.2 19:25:07 10° N 19:28:49 60° E 19:32:30 10° SSE
Cosmos 1538 Rocket 4.1 19:24:49 10° NNW 19:30:08 66° ENE 19:35:15 11° SSE
Meteor 1-14 Rocket 4.3 19:25:22 10° N 19:31:09 72° E 19:36:45 10° SSE
Cosmos 2315 Rocket 4.2 19:25:45 10° S 19:32:08 85° W 19:38:33 10° N
Resurs 01 Rocket 2.3 19:30:44 12° SE 19:34:25 38° ENE 19:38:31 10° N
Akebono 3.9 19:33:14 10° NNW 19:35:21 88° W 19:37:28 14° SSE
IGS 5A 4.2 19:34:48 14° SE 19:37:51 35° ENE 19:41:39 10° N
Cosmos 1470 Rocket 3.6 19:34:25 10° N 19:38:55 71° E 19:43:21 10° SSE
CREW DRAGON DEMO-1 DEB 3.7 19:37:58 10° WNW 19:40:21 31° SW 19:41:56 16° SSE
Cosmos 1782 4.3 19:37:53 10° SSW 19:41:38 39° WNW 19:45:23 10° N
SPOT 3 Rocket 3.9 19:41:44 15° SE 19:45:52 48° ENE 19:50:48 10° N
Meteor 1-5 Rocket 4.1 19:40:45 10° N 19:46:02 67° E 19:50:47 13° SSE
USA 307 3.2 19:43:22 10° NW 19:47:35 61° SW 19:50:36 18° SSE
SJ 16-02 1.9 19:43:16 10° SSW 19:47:39 62° WNW 19:52:03 10° N
Cosmos 2297 4.1 19:42:47 10° S 19:48:05 41° ESE 19:53:22 10° NE
NOSS 3-4 (A) 4.0 19:42:50 10° NNW 19:49:59 76° NE 19:56:19 17° SE
NOSS 3-4 (C) 4.0 19:42:57 10° NNW 19:50:05 76° NE 19:56:24 17° SE
Iridium 4 Rocket 4.2 19:45:06 12° SSE 19:50:08 45° E 19:55:43 10° NNE
Cosmos 1933 Rocket 3.6 19:48:06 10° N 19:52:25 63° E 19:55:39 17° SSE
Tianhe-1 1.4 19:50:25 10° W 19:53:31 65° N 19:56:09 14° ENE
SJ-6B 4.4 19:50:48 10° SSW 19:54:23 34° W 19:58:06 10° NNW
Ariane Rocket 3.2 19:50:19 10° S 19:55:20 69° WSW 20:00:24 10° NNW
Cosmos 1943 Rocket 2.7 19:53:40 10° S 19:58:47 37° ESE 20:03:52 10° NE
CRYOSAT 2 4.3 19:55:44 13° SSE 20:00:06 77° E 20:05:00 10° N
USA 308 3.6 19:57:24 10° WNW 20:01:30 46° SW 20:04:03 21° SSE
Terra 3.9 19:59:45 11° E 20:01:36 13° ENE 20:03:50 10° NE
Cosmos 990 Rocket 4.0 19:57:12 10° S 20:02:21 66° ESE 20:07:35 10° NNE
ATLAS 2AS CENTAUR R/B 3.1 19:56:01 10° NNW 20:03:11 55° NE 20:07:46 21° ESE
Cosmos 2082 Rocket 2.2 19:58:20 10° NNW 20:03:59 82° ENE 20:07:52 21° SSE
Cosmos 158 Rocket 3.8 19:59:39 10° NNW 20:04:35 82° ENE 20:07:55 21° SSE
Resurs 1-3 4.4 20:04:45 10° S 20:08:59 48° W 20:13:15 10° NNW
Cosmos 1900 4.4 20:04:38 10° SSW 20:09:45 84° WNW 20:14:50 10° NNE
Meteor 1-11 Rocket 4.0 20:04:29 10° N 20:10:21 59° ENE 20:13:54 23° SSE
Cosmos 1340 Rocket 4.1 20:08:20 10° NNE 20:11:43 25° ENE 20:12:35 23° E
Cosmos 1898 Rocket 3.5 20:06:32 10° S 20:11:45 64° ESE 20:17:02 10° NNE
USA 245 3.6 20:18:58 25° NE 20:18:58 25° NE 20:20:34 10° N
CZ-2C R/B 3.6 20:14:13 10° NNE 20:18:48 80° ESE 20:22:38 15° S
GPS 2-04 Rocket1 4.3 20:15:52 10° WSW 20:18:59 21° SSW 20:19:40 20° S
ARIANE 5 R/B 3.3 20:18:52 29° ESE 20:20:16 37° ENE 20:24:16 10° N
Cosmos 1271 Rocket 3.6 20:17:05 10° SSW 20:20:58 51° WNW 20:24:53 10° N
Cosmos 923 Rocket 4.0 20:17:08 10° NNW 20:22:27 83° ENE 20:25:17 29° SSE
Cosmos 1461 3.1 20:20:47 10° SSW 20:25:30 85° ESE 20:30:10 10° NNE
Milstar 3 4.4 20:10:34 10° WSW 20:27:35 49° S 20:33:40 25° SE
Cosmos 2369 Rocket 2.9 20:26:36 30° SE 20:27:47 33° ESE 20:32:47 10° NE
Landsat 7 4.0 20:28:10 24° S 20:31:00 68° WSW 20:35:45 10° NNW
Cosmos 1666 3.8 20:29:42 10° NNW 20:33:11 39° W 20:35:18 20° SSW
ATLAS CENTAUR R/B 3.5 20:36:26 11° ENE 20:36:26 11° ENE 20:36:39 10° ENE
Cosmos 1818 4.0 20:29:01 10° NNW 20:34:23 53° NE 20:36:36 32° ESE
Delta 2 Rocket 4.4 20:31:35 10° W 20:36:26 37° SSW 20:37:18 34° S
SL-24 R/B - RUBIN 2 3.8 20:31:21 10° NNW 20:36:39 81° ENE 20:38:18 41° SE
USA 267 4.3 20:33:22 18° S 20:37:28 33° SW 20:43:17 10° WNW
Cosmos 1536 2.7 20:35:13 10° N 20:39:15 78° E 20:40:06 53° SSE
ERBS 3.1 20:36:59 10° NNW 20:40:07 39° NE 20:40:21 38° NE
OAO 3 Rocket 3.4 20:36:00 10° WSW 20:40:25 44° S 20:40:54 43° SSE
SPOT 5 3.5 20:39:52 36° ESE 20:41:30 48° ENE 20:46:37 10° N
Cosmos 1238 Rocket 4.3 20:38:57 10° NNE 20:43:40 30° ENE 20:44:23 29° E
Nadezhda 1 Rocket 4.0 20:38:45 17° S 20:43:49 83° W 20:50:04 10° N
CZ-2C R/B 2.2 20:40:34 10° WSW 20:43:05 30° SSW 20:43:05 30° SSW
Cosmos 2154 Rocket 3.9 20:41:14 10° N 20:47:34 89° W 20:50:44 32° S
ERS-1 Rocket 3.1 20:49:06 43° SE 20:50:24 58° ENE 20:55:20 10° N
Cosmos 1862 Rocket 4.2 20:54:15 38° E 20:54:15 38° E 20:57:55 10° NNE
ISS -0.6 20:54:55 10° NW 20:56:54 15° NNW 20:58:53 10° NNE
Cosmos 1607 4.0 20:54:28 31° S 20:57:29 58° ESE 21:03:50 10° NE
Cosmos 2112 Rocket 4.2 20:55:26 10° NNW 21:00:46 70° WSW 21:02:28 43° S
Spot 2 Rocket 3.6 21:00:39 43° S 21:02:17 71° WSW 21:07:19 10° NNW
Cosmos 1869 Rocket 4.2 20:58:35 10° NNW 21:02:46 49° W 21:04:04 36° SW
Cosmos 1937 Rocket 3.9 20:58:57 15° SSW 21:03:10 60° WNW 21:08:18 10° NNE
Lacrosse 5 3.8 21:09:47 16° ENE 21:09:47 16° ENE 21:10:59 10° ENE
SPOT 1/Viking Rocket 4.3 21:05:52 29° SSW 21:08:05 46° W 21:13:05 10° NNW
Cosmos 44 3.9 21:03:45 10° NW 21:08:55 50° WSW 21:10:08 42° SSW
Cosmos 2263 4.3 21:09:27 52° SE 21:10:11 55° ESE 21:15:50 10° NNE
Resurs 01 Rocket 3.9 21:08:17 11° SW 21:11:01 18° W 21:14:07 10° NW
Cosmos 1743 2.7 21:07:19 10° N 21:11:02 79° NW 21:11:02 79° NW
RESURS DK-1 3.8 21:10:28 10° N 21:13:58 26° NE 21:13:58 26° NE
Cosmos 1707 Rocket 4.0 21:14:44 44° SW 21:15:47 57° W 21:20:10 10° N
CARTOSAT-1 4.0 21:15:34 48° SW 21:16:09 52° W 21:20:23 10° NNW
Cosmos 2084 Rocket 3.9 21:12:04 10° NW 21:16:18 52° WSW 21:16:25 52° SW
Cosmos 489 Rocket 4.4 21:17:01 10° NNW 21:23:17 78° ENE 21:24:44 55° SE
Cosmos 2366 rocket 4.1 21:18:15 10° N 21:24:23 57° E 21:25:28 50° ESE
Cosmos 1867 3.6 21:23:55 31° SW 21:26:36 77° WNW 21:32:05 10° NNE
Cosmos 2181 Rocket 3.8 21:25:49 55° SSE 21:27:13 79° E 21:33:22 10° N
Meteor 2-4 Rocket 3.9 21:28:24 50° E 21:28:28 50° E 21:33:50 10° NNE
Meteor 1-19 Rocket 4.0 21:28:38 64° S 21:29:32 89° W 21:34:58 10° N
Tianhe-1 3.6 21:27:05 10° WNW 21:28:07 19° WNW 21:28:07 19° WNW
Terra 1.9 21:38:38 68° WSW 21:38:45 68° WSW 21:43:30 10° NNW
Cosmos 1943 Rocket 3.9 21:37:36 10° WSW 21:42:32 31° WNW 21:47:27 10° N
Cosmos 1733 Rocket 3.6 21:41:17 10° NNW 21:45:11 51° WNW 21:45:11 51° WNW
Cosmos 1656 Rocket 3.5 21:46:52 70° SW 21:47:30 83° WNW 21:53:04 10° NNE
Gbstr 26 Del rocket 4.0 21:40:28 10° NW 21:47:47 66° SW 21:48:29 62° S
ATLAS 2AS CENTAUR R/B 3.8 21:47:43 10° NW 21:53:40 30° WSW 21:55:13 27° SW
Cosmos 2218 Rocket 4.0 21:50:40 10° N 21:57:01 78° W 21:58:01 64° SSW
Gblst 52 Del rocket 4.3 21:52:07 10° NW 21:59:07 83° SW 21:59:42 74° SSE
Cosmos 494 Rocket 4.4 21:56:05 10° N 22:00:49 52° NE 22:00:49 52° NE
Cosmos 2298 Rocket 4.1 22:02:56 72° W 22:03:05 72° WNW 22:08:23 10° NNE
SL-8 Rocket 4.4 21:59:27 10° NNW 22:05:36 55° W 22:06:45 48° SW
Nadezhda 3 Rocket 4.1 22:06:38 57° E 22:06:38 57° E 22:12:40 10° NNE
Cosmos 1908 Rocket 4.2 22:03:05 10° N 22:06:34 54° N 22:06:34 54° N
Cosmos 2369 Rocket 3.6 22:08:17 18° WSW 22:11:43 34° WNW 22:16:50 10° N
ATLAS CENTAUR R/B 3.2 22:12:29 25° NW 22:12:29 25° NW 22:15:34 10° N
Okean 1-7 4.1 22:21:21 42° NNW 22:21:21 42° NNW 22:24:21 10° N
Spot 4 4.3 22:24:53 57° NNE 22:24:53 57° NNE 22:28:52 10° N
Cosmos 1125 Rocket 4.0 22:31:08 54° WNW 22:31:08 54° WNW 22:36:11 10° N
ISS -0.4 22:33:38 10° NNW 22:34:51 11° N 22:36:05 10° NNE
Cosmos 2239 Rocket 4.4 22:29:22 10° N 22:35:44 75° E 22:35:47 75° E
Lacrosse 5 2.8 22:48:53 43° NW 22:49:21 44° NW 22:54:15 10° NNE
Cosmos 1066 Rocket 4.4 22:55:52 70° NW 22:55:52 70° NW 23:01:00 10° N
Cosmos 1934 Rocket 4.0 22:49:30 10° N 22:55:20 70° ENE 22:55:20 70° ENE
Cosmos 2227 Rocket 4.1 23:01:18 10° N 23:05:36 22° NE 23:07:26 19° E
Cosmos 2297 Rocket 3.6 23:02:43 10° N 23:07:36 28° ENE 23:08:40 27° ENE
SeaSat 1 4.5 23:03:45 10° NE 23:05:37 18° ENE 23:05:37 18° ENE
Cosmos 1821 Rocket 4.4 23:01:43 10° NNW 23:07:51 50° W 23:07:53 50° W
NOSS 2-1 (E) 4.5 23:12:33 10° NW 23:17:30 72° WNW 23:17:30 72° WNW
ALOS 2 4.4 23:29:20 27° NW 23:29:20 27° NW 23:31:37 10° NNW
COSMOS 2455 3.0 23:22:36 10° NNW 23:28:35 63° ENE 23:28:40 63° ENE
Cosmos 1932 4.4 23:35:56 84° NNW 23:35:56 84° NNW 23:42:11 10° NNE
Cosmos 1727 Rocket 4.1 23:36:38 66° E 23:36:38 66° E 23:42:50 10° NNE
USA 81 4.4 23:32:10 10° N 23:36:30 61° N 23:36:30 61° N
CZ-2D R/B 4.3 23:39:05 10° ENE 23:41:40 14° E 23:41:40 14° E
Cosmos 2251 Rocket 4.3 23:38:07 10° N 23:42:54 46° ENE 23:42:54 46° ENE
Meteor 1-21 4.4 23:48:27 70° NE 23:48:27 70° NE 23:53:44 10° NNE
Thor Agena Rocket 4.3 23:48:10 10° N 23:52:46 48° NW 23:52:46 48° NW
